GW1851 Weather Reports


Display with metric or nautical units.
time (UTC)temp
F
wind
direction
speed
MPH
gust
MPH
rain 1hr
in
rain 24hr
in
rain mn
in
humidity
%
barometer
mb
20260507144857 60 157 3.0 3.0 0.00 0.00 0.00 45 1015.7
20260507144355 59 223 3.0 3.0 0.00 0.00 0.00 46 1015.7
20260507143851 59 253 2.0 3.0 0.00 0.00 0.00 48 1015.7
20260507143349 60 251 1.0 1.0 0.00 0.00 0.00 46 1016.1
20260507142845 59 214 2.0 2.0 0.00 0.00 0.00 47 1015.9
20260507142341 59 224 3.0 3.0 0.00 0.00 0.00 48 1015.9
20260507141838 57 200 1.0 1.0 0.00 0.00 0.00 50 1015.9
20260507141334 58 224 2.0 3.0 0.00 0.00 0.00 49 1016.0
20260507140831 58 216 1.0 2.0 0.00 0.00 0.00 49 1016.2
20260507140328 57 245 3.0 3.0 0.00 0.00 0.00 49 1016.3
20260507135826 57 221 1.0 1.0 0.00 0.00 0.00 54 1016.3
20260507135322 56 208 0.0 1.0 0.00 0.00 0.00 54 1016.2
20260507134820 56 186 1.0 2.0 0.00 0.00 0.00 52 1016.3
20260507134316 55 231 1.0 1.0 0.00 0.00 0.00 56 1016.4
20260507133811 55 219 1.0 2.0 0.00 0.00 0.00 60 1016.4
20260507133308 53 209 0.0 1.0 0.00 0.00 0.00 59 1016.3
20260507132806 51 239 2.0 2.0 0.00 0.00 0.00 64 1016.7
20260507132306 50 215 1.0 2.0 0.00 0.00 0.00 66 1016.8
20260507131759 49 213 0.0 0.0 0.00 0.00 0.00 66 1016.7
20260507131256 49 225 1.0 1.0 0.00 0.00 0.00 65 1017.0
20260507130752 49 225 1.0 1.0 0.00 0.00 0.00 67 1016.7
20260507130250 48 195 1.0 1.0 0.00 0.00 0.00 67 1016.7
20260507125749 48 220 0.0 1.0 0.00 0.00 0.00 70 1016.9
20260507125246 48 214 0.0 0.0 0.00 0.00 0.00 70 1016.7
20260507124743 47 206 1.0 1.0 0.00 0.00 0.00 70 1016.8
20260507124239 46 214 0.0 0.0 0.00 0.00 0.00 72 1016.6
20260507123738 45 218 1.0 1.0 0.00 0.00 0.00 73 1016.7
20260507123235 45 226 0.0 0.0 0.00 0.00 0.00 76 1016.6
20260507122730 44 226 0.0 0.0 0.00 0.00 0.00 78 1016.5
20260507122227 44 226 0.0 0.0 0.00 0.00 0.00 81 1016.5
20260507121722 42 225 0.0 0.0 0.00 0.00 0.00 83 1016.5
20260507121218 41 226 0.0 0.0 0.00 0.00 0.00 85 1016.4
20260507120715 40 226 0.0 0.0 0.00 0.00 0.00 89 1016.5
20260507120212 40 226 0.0 0.0 0.00 0.00 0.00 90 1016.6
20260507115708 39 226 0.0 0.0 0.00 0.00 0.00 92 1016.5
20260507115204 38 226 0.0 0.0 0.00 0.00 0.00 93 1016.6
20260507114659 38 226 0.0 0.0 0.00 0.00 0.00 95 1016.3
20260507114157 37 226 0.0 0.0 0.00 0.00 0.00 95 1016.4
20260507113654 37 226 0.0 0.0 0.00 0.00 0.00 97 1016.6
20260507113151 37 226 0.0 0.0 0.00 0.00 0.00 97 1016.3
20260507112649 36 226 0.0 0.0 0.00 0.00 0.00 98 1016.3
20260507112145 36 226 0.0 0.0 0.00 0.00 0.00 99 1016.2
20260507111643 36 226 0.0 0.0 0.00 0.00 0.00 99 1016.1
20260507111139 36 226 0.0 0.0 0.00 0.00 0.00 99 1016.2
20260507110635 35 226 0.0 0.0 0.00 0.00 0.00 99 1016.1
20260507110132 35 226 0.0 0.0 0.00 0.00 0.00 99 1016.3
20260507105629 35 226 0.0 0.0 0.00 0.00 0.00 99 1016.2
20260507105125 35 226 0.0 0.0 0.00 0.00 0.00 99 1016.3
20260507104623 36 226 0.0 0.0 0.00 0.00 0.00 99 1016.0
20260507104119 36 226 0.0 0.0 0.00 0.00 0.00 99 1016.3
20260507103615 36 226 0.0 0.0 0.00 0.00 0.00 99 1016.4
20260507103112 36 226 0.0 0.0 0.00 0.00 0.00 99 1016.4
20260507102608 36 226 0.0 0.0 0.00 0.00 0.00 99 1016.4
20260507102105 36 226 0.0 0.0 0.00 0.00 0.00 99 1016.4
20260507101601 36 226 0.0 0.0 0.00 0.00 0.00 99 1016.4
20260507101057 36 226 0.0 0.0 0.00 0.00 0.00 99 1016.4
20260507100554 35 226 0.0 0.0 0.00 0.00 0.00 99 1016.7
20260507100052 36 226 0.0 0.0 0.00 0.00 0.00 99 1016.4
20260507095550 36 226 0.0 0.0 0.00 0.00 0.00 98 1016.4
20260507095047 36 226 0.0 0.0 0.00 0.00 0.00 98 1016.4
20260507094542 36 226 0.0 0.0 0.00 0.00 0.00 98 1016.5
20260507094040 37 226 0.0 0.0 0.00 0.00 0.00 98 1016.4
20260507093537 37 226 0.0 0.0 0.00 0.00 0.00 98 1016.5
20260507093036 36 226 0.0 0.0 0.00 0.00 0.00 98 1016.6
20260507092532 36 226 0.0 0.0 0.00 0.00 0.00 97 1016.7
20260507092029 36 226 0.0 0.0 0.00 0.00 0.00 97 1016.7
20260507091525 37 226 0.0 0.0 0.00 0.00 0.00 97 1016.6
20260507091021 37 226 0.0 0.0 0.00 0.00 0.00 96 1016.6
20260507090517 37 226 0.0 0.0 0.00 0.00 0.00 96 1016.7
20260507090014 37 226 0.0 0.0 0.00 0.00 0.00 96 1016.8
20260507085512 38 226 0.0 0.0 0.00 0.00 0.00 96 1016.8
20260507085008 38 226 0.0 0.0 0.00 0.00 0.00 96 1016.9
20260507084505 39 226 0.0 0.0 0.00 0.00 0.00 96 1016.9
20260507084002 38 226 0.0 0.0 0.00 0.00 0.00 95 1016.8
20260507083458 39 226 0.0 0.0 0.00 0.00 0.00 95 1016.8
20260507082955 39 226 0.0 0.0 0.00 0.00 0.00 95 1016.8
20260507082451 39 226 0.0 0.0 0.00 0.00 0.00 95 1016.8
20260507081947 40 226 0.0 0.0 0.00 0.00 0.00 95 1017.0
20260507081443 40 226 0.0 0.0 0.00 0.00 0.00 95 1017.0
20260507080941 40 226 0.0 0.0 0.00 0.00 0.00 95 1016.9
20260507080436 39 226 0.0 0.0 0.00 0.00 0.00 95 1017.0
20260507075932 39 226 0.0 0.0 0.00 0.00 0.00 96 1016.9
20260507075429 39 226 0.0 0.0 0.00 0.00 0.00 96 1016.9
20260507074925 39 226 0.0 0.0 0.00 0.00 0.00 95 1017.0
20260507074422 39 226 0.0 0.0 0.00 0.00 0.00 95 1017.2
20260507073920 39 226 0.0 0.0 0.00 0.00 0.00 95 1017.0
20260507073416 39 226 0.0 0.0 0.00 0.00 0.00 96 1017.1
20260507072913 39 226 0.0 0.0 0.00 0.00 0.00 96 1017.0
20260507072411 39 226 0.0 0.0 0.00 0.00 0.00 96 1017.3
20260507071908 38 226 0.0 0.0 0.00 0.00 0.00 97 1017.2
20260507071405 38 226 0.0 0.0 0.00 0.00 0.00 97 1017.4
20260507070901 38 226 0.0 0.0 0.00 0.00 0.00 97 1017.4
20260507070359 38 226 0.0 0.0 0.00 0.00 0.00 97 1017.3
20260507065856 38 226 0.0 0.0 0.00 0.00 0.00 97 1017.3
20260507065352 38 226 0.0 0.0 0.00 0.00 0.00 97 1017.6
20260507064849 38 226 0.0 0.0 0.00 0.00 0.00 97 1017.5
20260507064348 38 226 0.0 0.0 0.00 0.00 0.00 97 1017.4
20260507063845 38 226 0.0 0.0 0.00 0.00 0.00 97 1017.5
20260507063342 37 226 0.0 0.0 0.00 0.00 0.00 97 1017.4
20260507062839 37 226 0.0 0.0 0.00 0.00 0.00 97 1017.4
20260507062335 37 226 0.0 0.0 0.00 0.00 0.00 96 1017.5
20260507061833 37 226 0.0 0.0 0.00 0.00 0.00 96 1017.4
20260507061331 37 226 0.0 0.0 0.00 0.00 0.00 96 1017.4
20260507060830 37 226 0.0 0.0 0.00 0.00 0.00 96 1017.4
20260507060326 37 226 0.0 0.0 0.00 0.00 0.00 96 1017.5
20260507055823 37 226 0.0 0.0 0.00 0.00 0.00 96 1017.6
20260507055318 36 226 0.0 0.0 0.00 0.00 0.00 95 1017.7
20260507054815 37 226 0.0 0.0 0.00 0.00 0.00 95 1017.7
20260507054311 37 226 0.0 0.0 0.00 0.00 0.00 95 1017.5
20260507053808 37 226 0.0 0.0 0.00 0.00 0.00 94 1017.6
20260507053306 37 226 0.0 0.0 0.00 0.00 0.00 94 1017.7
20260507052805 37 226 0.0 0.0 0.00 0.00 0.00 94 1017.5
20260507052301 37 226 0.0 0.0 0.00 0.00 0.00 94 1017.5
20260507051759 38 226 0.0 0.0 0.00 0.00 0.00 93 1017.4
20260507051256 38 226 0.0 0.0 0.00 0.00 0.00 93 1017.4
20260507050753 37 226 0.0 0.0 0.00 0.00 0.00 93 1017.2
20260507050249 37 226 0.0 0.0 0.00 0.00 0.00 93 1017.4
20260507045746 38 226 0.0 0.0 0.00 0.00 0.00 92 1017.4
20260507045242 38 226 0.0 0.0 0.00 0.00 0.00 91 1017.5
20260507044740 38 226 0.0 0.0 0.00 0.00 0.00 91 1017.6
20260507044236 38 226 0.0 0.0 0.00 0.00 0.00 91 1017.6
20260507043732 39 226 0.0 0.0 0.00 0.00 0.00 90 1017.6
20260507043229 39 226 0.0 0.0 0.00 0.00 0.00 91 1017.6
20260507042725 39 226 0.0 0.0 0.00 0.00 0.00 90 1017.6
20260507042220 39 226 0.0 0.0 0.00 0.00 0.00 91 1017.4
20260507041718 39 226 0.0 0.0 0.00 0.00 0.00 90 1017.6
20260507041214 39 226 0.0 0.0 0.00 0.00 0.00 88 1017.6
20260507040712 39 227 0.0 0.0 0.00 0.00 0.00 88 1017.5
20260507040207 39 227 0.0 0.0 0.00 0.00 0.00 88 1017.7
20260507035704 39 232 1.0 1.0 0.00 0.00 0.00 88 1017.6
20260507035159 39 219 0.0 0.0 0.00 0.00 0.00 87 1017.4
20260507034656 40 219 0.0 0.0 0.00 0.00 0.00 87 1017.7
20260507034154 40 219 0.0 0.0 0.00 0.00 0.00 87 1017.5
20260507033653 41 219 0.0 0.0 0.00 0.00 0.00 87 1017.5
20260507033149 41 219 0.0 0.0 0.00 0.00 0.00 86 1017.5
20260507032647 41 219 0.0 0.0 0.00 0.00 0.00 85 1017.6
20260507032142 41 219 0.0 0.0 0.00 0.00 0.00 85 1017.6
20260507031640 41 219 0.0 0.0 0.00 0.00 0.00 84 1017.5
20260507031136 41 219 0.0 0.0 0.00 0.00 0.00 83 1017.5
20260507030633 41 219 0.0 0.0 0.00 0.00 0.00 82 1017.7
20260507030131 42 219 0.0 0.0 0.00 0.00 0.00 81 1017.6
20260507025628 42 219 0.0 0.0 0.00 0.00 0.00 80 1017.5
20260507025124 42 219 0.0 0.0 0.00 0.00 0.00 80 1017.4
20260507024622 43 219 0.0 0.0 0.00 0.00 0.00 78 1017.5
20260507024119 43 219 0.0 0.0 0.00 0.00 0.00 77 1017.6
20260507023615 43 219 0.0 0.0 0.00 0.00 0.00 75 1017.6
20260507023113 44 219 0.0 0.0 0.00 0.00 0.00 74 1017.4
20260507022609 44 220 0.0 0.0 0.00 0.00 0.00 73 1017.5
20260507022105 44 220 0.0 0.0 0.00 0.00 0.00 74 1017.7
20260507021601 45 220 0.0 0.0 0.00 0.00 0.00 73 1017.4
20260507021057 45 220 0.0 0.0 0.00 0.00 0.00 72 1017.2
20260507020555 46 220 0.0 0.0 0.00 0.00 0.00 70 1017.3
20260507020051 46 220 0.0 0.0 0.00 0.00 0.00 67 1017.1
20260507015550 46 220 0.0 0.0 0.00 0.00 0.00 62 1017.2
20260507015047 47 220 0.0 0.0 0.00 0.00 0.00 62 1017.4
20260507014543 47 220 0.0 0.0 0.00 0.00 0.00 60 1017.0
20260507014039 48 220 0.0 0.0 0.00 0.00 0.00 59 1016.8
20260507013536 48 220 0.0 0.0 0.00 0.00 0.00 58 1016.8
20260507013033 49 220 0.0 0.0 0.00 0.00 0.00 53 1016.9
20260507012531 49 219 0.0 0.0 0.00 0.00 0.00 54 1016.8
20260507012026 50 219 0.0 0.0 0.00 0.00 0.00 54 1016.6
20260507011524 50 219 0.0 0.0 0.00 0.00 0.00 54 1016.4
20260507011020 51 223 0.0 1.0 0.00 0.00 0.00 51 1016.8
20260507010515 51 220 0.0 0.0 0.00 0.00 0.00 49 1016.5
20260507010012 52 219 0.0 0.0 0.00 0.00 0.00 51 1016.7
20260507005509 52 216 0.0 1.0 0.00 0.00 0.00 49 1016.8
20260507005005 52 319 0.0 1.0 0.00 0.00 0.00 47 1016.4
20260507004502 52 221 0.0 1.0 0.00 0.00 0.00 51 1016.6
20260507004000 53 219 0.0 1.0 0.00 0.00 0.00 50 1016.4
20260507003455 53 235 1.0 1.0 0.00 0.00 0.00 47 1016.7
20260507002950 53 222 2.0 2.0 0.00 0.00 0.00 48 1016.2
20260507002447 54 207 0.0 1.0 0.00 0.00 0.00 47 1016.5
20260507001944 54 218 1.0 2.0 0.00 0.00 0.00 46 1016.5
20260507001440 54 220 0.0 0.0 0.00 0.00 0.00 48 1016.5
20260507000938 55 223 3.0 3.0 0.00 0.00 0.00 43 1016.4
20260507000435 55 210 2.0 3.0 0.00 0.00 0.00 43 1016.3
20260506235929 56 266 2.0 2.0 0.00 0.00 0.00 44 1016.5
20260506235426 56 251 2.0 5.0 0.00 0.00 0.00 44 1016.3
20260506234921 56 230 1.0 2.0 0.00 0.00 0.00 44 1016.4
20260506234420 55 253 2.0 3.0 0.00 0.00 0.00 44 1016.3
20260506233917 55 224 1.0 1.0 0.00 0.00 0.00 43 1016.1
20260506233413 56 215 2.0 2.0 0.00 0.00 0.00 44 1016.2
20260506232910 56 17 1.0 3.0 0.00 0.00 0.00 44 1016.3
20260506232406 56 218 3.0 5.0 0.00 0.00 0.00 42 1016.5
20260506231902 56 38 3.0 5.0 0.00 0.00 0.00 43 1016.5
20260506231400 56 281 3.0 3.0 0.00 0.00 0.00 41 1016.5
20260506230857 56 223 3.0 3.0 0.00 0.00 0.00 43 1016.4
20260506230354 56 246 3.0 5.0 0.00 0.00 0.00 43 1016.4
20260506225850 56 205 3.0 5.0 0.00 0.00 0.00 42 1016.5
20260506225348 57 221 2.0 2.0 0.00 0.00 0.00 40 1016.5
20260506224844 57 25 4.0 5.0 0.00 0.00 0.00 41 1016.4
20260506224342 57 247 4.0 6.0 0.00 0.00 0.00 43 1016.3
20260506223838 57 191 1.0 2.0 0.00 0.00 0.00 44 1016.3
20260506223333 57 2 3.0 5.0 0.00 0.00 0.00 42 1016.4
20260506222831 56 252 3.0 3.0 0.00 0.00 0.00 41 1016.6
20260506222326 57 223 5.0 7.0 0.00 0.00 0.00 41 1016.2
20260506221824 57 239 3.0 5.0 0.00 0.00 0.00 43 1016.2
20260506221321 57 249 5.0 7.0 0.00 0.00 0.00 40 1016.2
20260506220819 57 251 3.0 5.0 0.00 0.00 0.00 39 1016.2
20260506220314 58 234 1.0 2.0 0.00 0.00 0.00 43 1016.2
20260506215811 57 247 3.0 5.0 0.00 0.00 0.00 41 1015.8
20260506215307 57 215 1.0 1.0 0.00 0.00 0.00 39 1016.2
20260506214803 57 340 1.0 2.0 0.00 0.00 0.00 41 1016.2
20260506214300 58 3 4.0 6.0 0.00 0.00 0.00 40 1016.1
20260506213758 57 220 1.0 1.0 0.00 0.00 0.00 47 1016.2
20260506213254 58 229 6.0 7.0 0.00 0.00 0.00 40 1015.9
20260506212752 59 250 3.0 5.0 0.00 0.00 0.00 38 1016.2
20260506212247 58 330 3.0 3.0 0.00 0.00 0.00 44 1016.1
20260506211743 57 333 5.0 7.0 0.00 0.00 0.00 40 1016.3
20260506211239 57 225 4.0 6.0 0.00 0.00 0.00 45 1016.4
20260506210736 57 227 2.0 3.0 0.00 0.00 0.00 43 1016.2
20260506210233 58 230 3.0 3.0 0.00 0.00 0.00 43 1016.4
20260506205730 58 228 2.0 2.0 0.00 0.00 0.00 41 1016.5
20260506205226 58 242 4.0 7.0 0.00 0.00 0.00 39 1016.4
20260506204718 58 234 5.0 8.0 0.00 0.00 0.00 42 1016.3
20260506204215 58 252 5.0 9.0 0.00 0.00 0.00 42 1016.5
20260506203713 57 221 1.0 2.0 0.00 0.00 0.00 44 1016.7
20260506203209 58 245 3.0 6.0 0.00 0.00 0.00 39 1016.7
20260506202702 58 219 3.0 5.0 0.00 0.00 0.00 42 1016.7
20260506202157 58 241 2.0 3.0 0.00 0.00 0.00 38 1016.5
20260506201655 57 223 1.0 1.0 0.00 0.00 0.00 44 1016.6
20260506201151 59 227 4.0 6.0 0.00 0.00 0.00 41 1016.7
20260506200648 58 226 3.0 3.0 0.00 0.00 0.00 43 1016.7
20260506200144 59 263 8.0 10.0 0.00 0.00 0.00 39 1016.7
20260506195641 60 247 2.0 6.0 0.00 0.00 0.00 46 1016.6
20260506195137 58 290 4.0 5.0 0.00 0.00 0.00 43 1016.4
20260506194635 59 229 1.0 1.0 0.00 0.00 0.00 41 1016.5
20260506194131 59 258 7.0 9.0 0.00 0.00 0.00 39 1016.7
20260506193629 59 196 4.0 6.0 0.00 0.00 0.00 41 1016.6
20260506193126 59 4 3.0 5.0 0.00 0.00 0.00 39 1016.7
20260506192623 59 230 3.0 5.0 0.00 0.00 0.00 41 1016.7
20260506192118 59 228 1.0 2.0 0.00 0.00 0.00 43 1016.8
20260506191615 59 242 5.0 7.0 0.00 0.00 0.00 42 1016.6
20260506191111 57 226 3.0 3.0 0.00 0.00 0.00 43 1016.7
20260506190609 58 252 4.0 5.0 0.00 0.00 0.00 38 1016.8
20260506190106 59 223 1.0 2.0 0.00 0.00 0.00 41 1017.0
20260506185603 59 254 3.0 5.0 0.00 0.00 0.00 41 1016.8
20260506185059 58 239 1.0 3.0 0.00 0.00 0.00 43 1017.0
20260506184557 57 253 3.0 5.0 0.00 0.00 0.00 41 1016.9
20260506184054 58 265 3.0 5.0 0.00 0.00 0.00 46 1016.8
20260506183550 58 242 2.0 3.0 0.00 0.00 0.00 41 1016.8
20260506183046 59 244 3.0 5.0 0.00 0.00 0.00 40 1016.9
20260506182544 59 314 3.0 5.0 0.00 0.00 0.00 37 1017.0
20260506182041 58 211 2.0 3.0 0.00 0.00 0.00 49 1017.0
20260506181539 57 248 3.0 6.0 0.00 0.00 0.00 42 1017.1
20260506181035 57 263 2.0 3.0 0.00 0.00 0.00 42 1016.9
20260506180532 59 227 5.0 7.0 0.00 0.00 0.00 42 1016.8
20260506180029 58 252 3.0 3.0 0.00 0.00 0.00 40 1016.8
20260506175525 57 249 5.0 7.0 0.00 0.00 0.00 43 1016.8
20260506175022 57 253 4.0 6.0 0.00 0.00 0.00 45 1016.8
20260506174520 59 246 5.0 6.0 0.00 0.00 0.00 41 1016.7
20260506174016 57 12 3.0 5.0 0.00 0.00 0.00 46 1017.0
20260506173514 58 215 3.0 5.0 0.00 0.00 0.00 46 1016.8
20260506173011 56 238 3.0 5.0 0.00 0.00 0.00 44 1016.9
20260506172508 57 227 3.0 3.0 0.00 0.00 0.00 44 1016.9
20260506172004 57 229 1.0 1.0 0.00 0.00 0.00 44 1016.8
20260506171501 57 233 2.0 2.0 0.00 0.00 0.00 43 1017.0
20260506170958 58 229 0.0 1.0 0.00 0.00 0.00 43 1017.0
20260506170455 56 332 3.0 3.0 0.00 0.00 0.00 47 1017.1
20260506165948 58 178 3.0 3.0 0.00 0.00 0.00 44 1017.1
20260506165446 56 246 3.0 3.0 0.00 0.00 0.00 48 1017.2
20260506164936 57 66 2.0 2.0 0.00 0.00 0.00 47 1017.2
20260506164433 56 208 2.0 2.0 0.00 0.00 0.00 46 1017.2
20260506163931 57 245 2.0 3.0 0.00 0.00 0.00 49 1017.1
20260506163425 56 272 2.0 2.0 0.00 0.00 0.00 43 1017.1
20260506162920 57 263 3.0 5.0 0.00 0.00 0.00 51 1016.7
20260506162418 58 223 1.0 1.0 0.00 0.00 0.00 46 1016.8
20260506161910 58 344 5.0 6.0 0.00 0.00 0.00 51 1017.1
20260506161408 57 251 1.0 1.0 0.00 0.00 0.00 48 1016.9
20260506160905 56 0 2.0 6.0 0.00 0.00 0.00 55 1016.9
20260506160401 56 230 1.0 1.0 0.00 0.00 0.00 49 1017.2
20260506155900 55 207 2.0 3.0 0.00 0.00 0.00 50 1016.9
20260506155356 56 264 4.0 6.0 0.00 0.00 0.00 49 1016.9
20260506153513 55 242 2.0 3.0 0.00 0.00 0.00 52 1016.5
20260506153011 55 223 0.0 0.0 0.00 0.00 0.00 56 1016.7
20260506152508 54 225 0.0 0.0 0.00 0.00 0.00 56 1016.5
20260506152006 53 246 1.0 1.0 0.00 0.00 0.00 58 1016.6
20260506151503 53 298 3.0 3.0 0.00 0.00 0.00 58 1016.6
20260506151001 52 268 1.0 2.0 0.00 0.00 0.00 60 1016.7
20260506150457 52 236 3.0 3.0 0.00 0.00 0.00 58 1016.5
20260506145954 52 238 2.0 2.0 0.00 0.00 0.00 60 1016.3
20260506145450 52 284 2.0 2.0 0.00 0.00 0.00 61 1016.3